Flag Weather past 2 weeks in Bautzen, Saxony, Germany

Now
36 °F

Overcast.


Feels Like: 34 °F
Forecast: 29 / 39 °F
Wind: 3 mph from Southeast

Location: Goerlitz

Current Time: Nov 27, 2014 at 7:47:03 PM

Latest Report: Nov 27, 2014 at 7:00 PM


Visibility: 8 mi

Pressure: 30.03 "Hg

Humidity: 74%

Dew point: 29 °F

Location of BautzenLocation

Historic Weather in Bautzen — Graph

°F

Bautzen temperature yesterday

Maximum temperature yesterday: 44 °F (at 12:00 PM)
Minimum temperature yesterday: 31 °F (at 11:00 PM)
Average temperature yesterday: 38 °F

Past Weeks' High & Low Weather Summary

 TemperatureHumidityPressure
High55 °F (Nov 15, 1:00 PM)99% (Nov 14, 4:00 AM)30.38 "Hg (Nov 14, 4:00 AM)
Low29 °F (Nov 27, 4:00 AM)68% (Nov 27, 12:00 PM)29.59 "Hg (Nov 16, 11:00 AM)
Average42 °F90%30.08 "Hg
* Reported Nov 12 6:00 PM — Nov 27 6:00 PM, Bautzen, Weather by CustomWeather, © 2014

Note: Actual official high and low records may vary slightly from our data, if they occured in-between our weather recording intervals... More about our weather records

Advertising

Bautzen weather history for previous 24 hours

 ConditionsComfort  
Time TempWeatherWind HumidityBarometerVisibility
6:00 PM
Nov 27
36 °FOvercast.2 mph76%30.03 "Hg7 mi
5:00 PM37 °FOvercast.3 mph74%30.03 "Hg9 mi
4:00 PM37 °FOvercast.5 mph74%30.02 "Hg11 mi
3:00 PM39 °FOvercast.5 mph72%30.02 "Hg9 mi
2:00 PM39 °FOvercast.6 mph70%30.02 "Hg7 mi
1:00 PM39 °FOvercast.3 mph69%30.03 "Hg7 mi
12:00 PM38 °FOvercast.2 mph68%30.05 "Hg6 mi
11:00 AM37 °FPartly sunny.2 mph73%30.06 "Hg9 mi
10:00 AM33 °FScattered clouds.1 mph82%30.07 "Hg9 mi
9:00 AM30 °FPartly sunny.1 mph89%30.08 "Hg9 mi
8:00 AM30 °FPartly sunny.1 mph90%30.08 "Hg8 mi
7:00 AM29 °FPassing clouds.2 mph90%30.08 "Hg7 mi
6:00 AM29 °FPassing clouds.1 mph90%30.09 "Hg9 mi
5:00 AM29 °FPassing clouds.2 mph88%30.09 "Hg8 mi
4:00 AM29 °FPassing clouds.2 mph92%30.11 "Hg7 mi
3:00 AM30 °FPassing clouds.2 mph93%30.12 "Hg7 mi
2:00 AM30 °FPassing clouds.2 mph92%30.13 "Hg6 mi
1:00 AM31 °FPassing clouds.2 mph95%30.14 "Hg6 mi
12:00 AM30 °FPassing clouds.2 mph94%30.16 "Hg6 mi
11:00 PM
Nov 26
31 °FPassing clouds.2 mph94%30.18 "Hg6 mi
10:00 PM32 °FPassing clouds.2 mph92%30.18 "Hg6 mi
9:00 PM31 °FPassing clouds.2 mph87%30.19 "Hg7 mi
8:00 PM34 °FPassing clouds.2 mph84%30.19 "Hg8 mi
7:00 PM35 °FPassing clouds.2 mph81%30.20 "Hg11 mi
Weather by CustomWeather, © 2014

See weather overviewHow to use our weather pages